Weather History for Tacoma Narrows, WA

Change the Weather History Date:

Monday, October 7, 2013

  Actual Average Record
Temperature  
Mean Temperature 54 °F -  
Max Temperature 57 °F 59 °F 73 °F (2000)
Min Temperature 51 °F 47 °F 44 °F (2006)
Degree Days  
Heating Degree Days 11    
Growing Degree Days 4 (Base 50)    
Moisture  
Dew Point 48 °F    
Average Humidity 82    
Maximum Humidity 94    
Minimum Humidity 59    
Precipitation  
Precipitation 0.00 in - - ()
Sea Level Pressure  
Sea Level Pressure 29.97 in    
Wind  
Wind Speed 12 mph (SSW)    
Max Wind Speed 17 mph    
Max Gust Speed 28 mph    
Visibility 9 miles    
Events Rain    
Averages and records for this station are not official NWS values.
T = Trace of Precipitation, MM = Missing Value Source: NWS Daily Summary

Daily Weather History Graph

Daily Weather History Graph

Search for Another Location

Airport:

Trip Planner

Search our weather history database for the weather conditions in past years. The results will help you decide how hot, cold, wet, or windy it might be!

Date:

Astronomy

Oct. 07, 2013 Rise Set
Actual Time 7:17 AM PDT 6:37 PM PDT
Civil Twilight 6:47 AM PDT 7:07 PM PDT
Nautical Twilight 6:11 AM PDT 7:43 PM PDT
Astronomical Twilight 5:36 AM PDT 8:18 PM PDT
Moon 10:26 AM PDT (10/7) 8:12 PM PDT (10/7)
Length of Visible Light 12h 20m
Length of Day
11h 19m
Waxing Crescent, 9% of the Moon is Illuminated
Oct 7
Waxing Crescent
Oct 11
First Quarter
Oct 18
Full
Oct 26
Last Quarter
Nov 3
New

Hourly Weather History & Observations

Time (PDT) Temp. Dew Point Humidity Pressure Visibility Wind Dir Wind Speed Gust Speed Precip Events Conditions
12:51 AM 53.6 °F 50.0 °F 88% 29.94 in 10.0 mi SSW 10.4 mph 18.4 mph N/A Rain Light Rain
12:53 AM 53.1 °F 50.0 °F 89% 29.94 in 10.0 mi SSW 10.4 mph 17.3 mph N/A Rain Light Rain
1:12 AM 53.6 °F 50.0 °F 88% 29.94 in 5.0 mi South 13.8 mph 23.0 mph N/A Rain Light Rain
1:32 AM 51.8 °F 50.0 °F 94% 29.94 in 7.0 mi South 10.4 mph 20.7 mph N/A Rain Light Rain
1:53 AM 52.0 °F 50.0 °F 93% 29.94 in 8.0 mi South 12.7 mph - N/A   Overcast
2:18 AM 53.6 °F 51.8 °F 94% 29.94 in 10.0 mi South 11.5 mph - N/A   Overcast
2:30 AM 53.6 °F 50.0 °F 88% 29.93 in 10.0 mi South 10.4 mph - N/A   Overcast
2:49 AM 53.6 °F 50.0 °F 88% 29.94 in 4.0 mi South 11.5 mph - N/A Rain Light Rain
2:53 AM 53.1 °F 50.0 °F 89% 29.93 in 7.0 mi SSE 8.1 mph - N/A Rain Light Rain
3:11 AM 53.6 °F 50.0 °F 88% 29.92 in 10.0 mi South 10.4 mph - N/A   Mostly Cloudy
3:53 AM 53.1 °F 50.0 °F 89% 29.92 in 10.0 mi South 11.5 mph - N/A   Mostly Cloudy
4:23 AM 53.6 °F 50.0 °F 88% 29.92 in 10.0 mi South 12.7 mph - N/A   Overcast
4:32 AM 53.6 °F 50.0 °F 88% 29.92 in 10.0 mi South 12.7 mph - N/A   Overcast
4:53 AM 53.1 °F 50.0 °F 89% 29.92 in 10.0 mi South 12.7 mph - N/A   Overcast
5:53 AM 53.1 °F 48.9 °F 86% 29.92 in 10.0 mi South 10.4 mph - N/A   Mostly Cloudy
6:53 AM 53.1 °F 48.9 °F 86% 29.92 in 10.0 mi South 12.7 mph - N/A   Overcast
7:53 AM 53.1 °F 48.0 °F 83% 29.94 in 10.0 mi South 12.7 mph - N/A   Overcast
8:35 AM 53.6 °F 48.2 °F 82% 29.94 in 4.0 mi South 12.7 mph - N/A Rain Light Rain
8:47 AM 53.6 °F 48.2 °F 82% 29.94 in 10.0 mi South 15.0 mph - N/A   Overcast
8:53 AM 52.0 °F 48.9 °F 89% 29.94 in 8.0 mi South 17.3 mph - N/A   Mostly Cloudy
9:05 AM 53.6 °F 48.2 °F 82% 29.95 in 10.0 mi SSW 13.8 mph 24.2 mph N/A   Overcast
9:16 AM 53.6 °F 50.0 °F 88% 29.95 in 10.0 mi South 17.3 mph 27.6 mph N/A   Overcast
9:53 AM 54.0 °F 50.0 °F 86% 29.96 in 10.0 mi South 13.8 mph 23.0 mph N/A Rain Light Rain
10:53 AM 53.1 °F 48.0 °F 83% 29.98 in 10.0 mi SSW 12.7 mph 20.7 mph N/A   Mostly Cloudy
11:05 AM 53.6 °F 48.2 °F 82% 29.98 in 10.0 mi South 12.7 mph 19.6 mph N/A   Mostly Cloudy
11:53 AM 55.9 °F 48.9 °F 77% 29.99 in 10.0 mi South 17.3 mph 23.0 mph N/A   Mostly Cloudy
12:53 PM 54.0 °F 45.0 °F 72% 30.00 in 10.0 mi SSW 16.1 mph 25.3 mph N/A   Scattered Clouds
1:53 PM 57.9 °F 45.0 °F 62% 30.01 in 10.0 mi SW 10.4 mph 21.9 mph N/A   Mostly Cloudy
2:53 PM 55.9 °F 45.0 °F 67% 30.01 in 10.0 mi WSW 10.4 mph 18.4 mph N/A   Scattered Clouds
3:53 PM 57.0 °F 43.0 °F 59% 30.01 in 10.0 mi SW 10.4 mph 18.4 mph N/A   Mostly Cloudy
4:53 PM 55.9 °F 44.1 °F 64% 30.03 in 10.0 mi SSW 11.5 mph 19.6 mph N/A   Scattered Clouds
5:53 PM 55.0 °F 44.1 °F 67% 30.02 in 10.0 mi SSW 11.5 mph 20.7 mph N/A   Mostly Cloudy
6:53 PM 54.0 °F 44.1 °F 69% 30.03 in 10.0 mi SW 11.5 mph 21.9 mph N/A   Overcast
7:53 PM 54.0 °F 46.0 °F 75% 30.03 in 10.0 mi SSW 10.4 mph 20.7 mph N/A   Overcast
8:20 PM 53.6 °F 46.4 °F 77% 30.02 in 10.0 mi South 16.1 mph 23.0 mph N/A   Overcast
8:53 PM 53.1 °F 46.0 °F 77% 30.02 in 10.0 mi SSW 13.8 mph - N/A   Overcast
9:28 PM 51.8 °F 46.4 °F 82% 30.01 in 10.0 mi South 13.8 mph 26.5 mph N/A   Mostly Cloudy
9:44 PM 51.8 °F 46.4 °F 82% 30.02 in 10.0 mi South 13.8 mph 24.2 mph N/A   Mostly Cloudy
9:53 PM 53.1 °F 46.0 °F 77% 30.02 in 10.0 mi South 15.0 mph 24.2 mph N/A   Mostly Cloudy
10:53 PM 52.0 °F 46.0 °F 80% 30.02 in 10.0 mi SSW 11.5 mph 19.6 mph N/A   Mostly Cloudy
11:01 PM 51.8 °F 46.4 °F 82% 30.02 in 10.0 mi SSW 10.4 mph 19.6 mph N/A   Scattered Clouds
11:53 PM 52.0 °F 44.1 °F 74% 30.02 in 10.0 mi SSW 16.1 mph 23.0 mph N/A   Clear